[[{"header":{"parameterUnit":"m.s-1","parameterCategory":1,"la1":30.2991,"la2":30.254,"lo1":-89.0895,"lo2":-89.0444,"dy":0.0017,"dx":0.0017,"nx":28,"ny":28,"refTime":"2024-09-26T09:00:00:Z","depth":0,"parameterNumber":2,"parameterNumberName":"U-component_of_WINDS"},"data":[0,0,0,0,0,0,0,0,0,0,0,0,0,0,0,0,0,0,0,0,0,0,0,0,0,0,0,0,0,0,0,0,0,0,0,0,0,0,0,0,0,0,0,0,0,0,0,0,0,0,0,0,0,0,0,0,0,0,3.7023,3.7024,0,3.7085,3.7086,3.7086,3.7048,3.7047,3.7045,3.7043,3.7104,3.7108,3.7111,0,0,0,0,0,0,0,0,0,0,0,0,0,3.6872,3.6875,3.7023,3.7024,3.7025,3.7085,3.7086,3.7087,3.7049,3.7047,3.7044,3.7042,3.7103,3.7107,3.7111,0,0,0,0,0,0,0,0,0,0,0,0,0,3.6936,3.6876,3.7023,3.7013,3.7013,3.7085,3.7086,3.7087,3.7049,3.7047,3.7044,3.7041,3.7102,3.7107,3.7112,3.7196,0,0,3.7127,3.7129,0,0,0,0,0,0,0,0,3.6932,3.6942,3.7014,3.7014,3.7014,3.7056,3.7055,3.7124,3.705,3.7035,3.7043,3.704,3.7091,3.7096,3.7114,3.7199,3.7202,3.7127,3.713,3.7133,3.7134,0,0,0,0,0,0,0,3.6928,3.6939,3.7048,3.7015,3.7015,3.7006,3.7012,3.7068,3.7077,3.7036,3.7034,3.7042,3.709,3.7109,3.7115,3.7203,3.7127,3.7132,3.7135,3.7137,3.7362,3.7365,0,0,0,0,0,0,3.6925,3.6935,3.7046,3.705,3.6966,3.701,3.7017,3.7045,3.7077,3.7079,3.7044,3.704,3.7102,3.7109,3.7117,3.7218,3.7132,3.7137,3.714,3.7359,3.7363,3.7366,0,0,0,0,0,0,3.6921,3.6935,3.7043,3.6992,3.7005,3.7016,3.7048,3.7048,3.7067,3.7082,3.7084,3.7062,3.71,3.711,3.7177,3.722,3.7139,3.7144,3.7356,3.736,3.7364,3.7422,0,0,0,0,0,0,3.6917,3.6934,3.6966,3.6993,3.7008,3.7103,3.705,3.7051,3.7076,3.7071,3.7099,3.7101,3.7099,3.717,3.7182,3.7225,3.7148,3.7352,3.7358,3.7363,3.7416,3.7428,3.7438,0,0,0,0,0,3.6912,3.6979,3.6968,3.6981,3.7048,3.7105,3.7114,3.711,3.7079,3.7112,3.7122,3.71,3.7214,3.7177,3.7191,3.7236,3.7349,3.7356,3.7363,3.7412,3.7426,3.7438,0,0,0,0,0,0,3.6956,3.6982,3.697,3.7048,3.7075,3.7099,3.7139,3.7125,3.716,3.7154,3.7147,3.7154,3.7225,3.7237,3.7196,3.732,3.7277,3.7286,3.7309,3.7323,3.7333,3.7329,3.7152,0,0,0,0,0,3.6975,3.7019,3.704,3.7107,3.7121,3.7128,3.7153,3.7148,3.7175,3.7186,3.7201,3.7228,3.727,3.7297,3.7336,3.7419,3.7424,3.7456,3.7467,3.7476,3.7484,3.753,3.7544,3.7388,3.7388,3.7388,0,0,3.7014,3.7034,3.7062,3.7116,3.7136,3.7182,3.7138,3.7188,3.7222,3.7193,3.7258,3.727,3.73,3.7376,3.741,3.7388,3.7529,3.7485,3.7492,3.7495,3.7538,3.7553,3.7566,3.7393,3.7392,3.7391,0,0,3.7109,3.7128,3.7186,3.7208,3.724,3.7245,3.7259,3.7286,3.7293,3.7358,3.7338,3.7379,3.745,3.7473,3.7494,3.76,3.7581,3.7613,3.7669,3.7713,3.7725,3.7736,3.7774,3.7788,3.7621,3.7621,3.7621,0,3.7153,3.7222,3.7218,3.7271,3.7295,3.7273,3.7332,3.7353,3.7395,3.7413,3.7389,3.748,3.7498,3.7579,3.7605,3.7623,3.7639,3.7609,3.7724,3.7735,3.7745,3.7781,3.7795,3.7625,3.7624,3.7624,3.7624,0,3.7275,3.7324,3.7367,3.741,3.7439,3.7495,3.75,3.753,3.7523,3.7531,3.7598,3.762,3.7663,3.7682,3.7675,3.7763,3.7749,3.7725,3.768,3.7763,3.7797,3.7811,3.763,3.7629,3.7628,3.7627,0,0,3.7397,3.7439,3.7455,3.7475,3.7509,3.7547,3.7602,3.7646,3.7672,3.7703,3.7749,3.7812,3.779,3.7814,3.7809,3.7848,3.7932,3.7819,3.782,3.7839,3.803,3.8048,3.8064,3.792,3.7923,3.7925,3.8028,0,3.7494,3.759,3.759,3.7679,3.7724,3.7704,3.7753,3.7779,3.7788,3.7828,3.7837,3.7882,3.785,3.7864,3.7902,3.7914,3.797,3.7906,3.7963,3.7965,3.7955,3.8082,3.81,3.8196,3.8041,3.8043,3.8045,0,3.7619,3.7656,3.775,3.7779,3.7798,3.7841,3.7882,3.792,3.7951,3.7954,3.7982,3.7973,3.8029,3.7984,3.8062,3.8019,3.8042,3.8052,3.8055,3.806,3.8009,3.8089,3.8226,3.824,3.8066,3.8064,3.8062,0,3.7699,3.7772,3.7838,3.7855,3.7891,3.7922,3.7939,3.7966,3.7993,3.8029,3.8046,3.8088,3.8111,3.8144,3.8146,3.8113,3.8224,3.8179,3.8229,3.8229,3.8252,3.825,3.8394,3.8268,3.8268,3.8268,3.8268,0,3.7807,3.7865,3.7874,3.7915,3.798,3.7979,3.8043,3.8057,3.8082,3.8125,3.8111,3.8151,3.8152,3.8193,3.8195,3.826,3.827,3.8275,3.8274,3.8276,3.8275,3.829,3.8283,3.8272,3.8271,3.827,3.827,0,3.7906,3.7914,3.7985,3.8014,3.8023,3.807,3.8095,3.8133,3.8142,3.8197,3.8209,3.8223,3.8271,3.8277,3.8333,3.8334,3.8412,3.8405,3.8402,3.8401,3.845,3.8445,3.8608,3.8629,3.849,3.8491,3.8492,0,3.7974,3.8018,3.8053,3.8081,3.81,3.8145,3.8173,3.8174,3.8204,3.8243,3.8277,3.8325,3.8362,3.8441,3.8455,3.8499,3.8492,3.8546,3.8498,3.8499,3.8493,3.849,3.8495,3.8555,3.8557,3.8558,3.8559,0,3.8093,3.8096,3.8137,3.818,3.8215,3.8249,3.828,3.8304,3.831,3.8344,3.8394,3.8423,3.8482,3.8529,3.8572,3.8589,3.8575,3.8574,3.8588,3.8589,3.8586,3.8588,3.8427,3.857,3.8569,3.8568,3.8568,3.8567,3.8179,3.8218,3.8249,3.8296,3.832,3.8351,3.8389,3.8404,3.8446,3.8494,3.8492,3.8547,3.8578,3.8634,3.8655,3.8698,3.868,3.8699,3.8704,3.8709,3.8714,3.858,3.8706,3.8705,3.8705,3.8705,3.8704,0,3.8297,3.8317,3.836,3.8406,3.8443,3.8429,3.8464,3.8496,3.8545,3.8575,3.8613,3.8671,3.8717,3.8736,3.8782,3.8813,3.8808,3.8825,3.8822,3.8826,3.8728,3.8711,3.8828,3.8828,3.8828,3.8828,3.8828,3.8828,3.8363,3.8429,3.8436,3.8515,3.8534,3.8588,3.861,3.8638,3.8662,3.8728,3.8767,3.8779,3.8805,3.8853,3.8895,3.89,3.8917,3.8937,3.8939,3.8846,3.8833,3.8821,3.8806,3.8941,3.8941,3.9034,3.9034,3.9035]},{"header":{"parameterUnit":"m.s-1","parameterCategory":1,"la1":30.2991,"la2":30.254,"lo1":-89.0895,"lo2":-89.0444,"dy":0.0017,"dx":0.0017,"nx":28,"ny":28,"refTime":"2024-09-26T09:00:00:Z","depth":0,"parameterNumber":3,"parameterNumberName":"V-component_of_WINDS"},"data":[0,0,0,0,0,0,0,0,0,0,0,0,0,0,0,0,0,0,0,0,0,0,0,0,0,0,0,0,0,0,0,0,0,0,0,0,0,0,0,0,0,0,0,0,0,0,0,0,0,0,0,0,0,0,0,0,0,0,-6.9606,-6.9608,0,-6.9831,-6.9833,-6.9836,-6.9794,-6.979,-6.9786,-6.9782,-7.0009,-7.0019,-7.0028,0,0,0,0,0,0,0,0,0,0,0,0,0,-6.9139,-6.9147,-6.9606,-6.9608,-6.9611,-6.983,-6.9833,-6.9836,-6.9795,-6.979,-6.9785,-6.978,-7.0006,-7.0017,-7.0029,0,0,0,0,0,0,0,0,0,0,0,0,0,-6.935,-6.915,-6.9605,-6.9617,-6.962,-6.983,-6.9833,-6.9837,-6.9796,-6.979,-6.9784,-6.9778,-7.0002,-7.0016,-7.0031,-7.0242,0,0,-7.0076,-7.0082,0,0,0,0,0,0,0,0,-6.9338,-6.9367,-6.9612,-6.9616,-6.9621,-6.9778,-6.9752,-6.9973,-6.9797,-6.9729,-6.9782,-6.9775,-6.9937,-6.9957,-7.0012,-7.0252,-7.0262,-7.0077,-7.0086,-7.0092,-7.0096,0,0,0,0,0,0,0,-6.9324,-6.9357,-6.9694,-6.9616,-6.9621,-6.961,-6.9634,-6.9793,-6.9864,-6.9734,-6.9732,-6.9759,-6.9938,-6.9998,-7.0017,-7.0265,-7.0077,-7.009,-7.0099,-7.0104,-7.0692,-7.0699,0,0,0,0,0,0,-6.9305,-6.9345,-6.9687,-6.9701,-6.9462,-6.9624,-6.965,-6.9734,-6.9862,-6.9876,-6.9764,-6.9756,-6.9976,-7.0,-7.0025,-7.0282,-7.0092,-7.0106,-7.0114,-7.0685,-7.0694,-7.0701,0,0,0,0,0,0,-6.9296,-6.9336,-6.9678,-6.9523,-6.9566,-6.9638,-6.9732,-6.9741,-6.9801,-6.9885,-6.9896,-6.9813,-6.9972,-7.0004,-7.0189,-7.0289,-7.0112,-7.0126,-7.0677,-7.0688,-7.0697,-7.0797,0,0,0,0,0,0,-6.9282,-6.9333,-6.9414,-6.9525,-6.9574,-6.984,-6.9739,-6.975,-6.9827,-6.9819,-6.9933,-6.9946,-6.997,-7.0167,-7.0203,-7.0306,-7.0137,-7.0669,-7.0682,-7.0694,-7.0785,-7.0809,-7.083,0,0,0,0,0,-6.9266,-6.9432,-6.9419,-6.946,-6.9677,-6.9845,-6.9873,-6.9898,-6.9835,-6.9917,-6.9971,-6.9943,-7.0272,-7.0186,-7.0227,-7.0336,-7.0662,-7.0678,-7.0693,-7.0775,-7.0805,-7.083,0,0,0,0,0,0,-6.933,-6.9447,-6.9433,-6.964,-6.9734,-6.9838,-6.9942,-6.9928,-7.004,-7.0028,-7.0052,-7.0079,-7.0267,-7.0319,-7.0222,-7.0547,-7.0458,-7.0482,-7.0507,-7.0535,-7.0558,-7.0542,-7.0149,0,0,0,0,0,-6.9368,-6.9496,-6.959,-6.9764,-6.9812,-6.9869,-6.9943,-6.9955,-7.0051,-7.009,-7.0157,-7.0252,-7.0377,-7.0459,-7.0578,-7.0792,-7.0817,-7.0887,-7.0909,-7.0927,-7.0948,-7.1067,-7.11,-7.0751,-7.0751,-7.0751,0,0,-6.9448,-6.9528,-6.9607,-6.9779,-6.9853,-6.9984,-6.9903,-7.0044,-7.0142,-7.0111,-7.0291,-7.0344,-7.0451,-7.0652,-7.0743,-7.0701,-7.105,-7.0947,-7.0961,-7.0972,-7.1087,-7.1119,-7.1149,-7.0762,-7.076,-7.0758,0,0,-6.9662,-6.9735,-6.9889,-6.9965,-7.0078,-7.0115,-7.0152,-7.026,-7.0294,-7.0475,-7.0455,-7.0571,-7.0785,-7.0863,-7.0931,-7.1177,-7.1155,-7.1214,-7.1333,-7.1448,-7.1476,-7.15,-7.159,-7.1622,-7.1235,-7.1235,-7.1235,0,-6.9748,-6.9946,-6.9969,-7.0115,-7.0192,-7.0171,-7.0328,-7.0399,-7.0545,-7.0599,-7.0549,-7.0819,-7.089,-7.111,-7.117,-7.1225,-7.1268,-7.1202,-7.147,-7.1495,-7.1518,-7.1604,-7.1637,-7.1242,-7.1241,-7.124,-7.124,0,-7.0047,-7.0184,-7.0295,-7.0438,-7.0527,-7.0677,-7.0723,-7.0811,-7.0814,-7.0857,-7.1042,-7.1126,-7.1263,-7.1315,-7.1319,-7.1537,-7.1508,-7.1464,-7.1375,-7.1558,-7.1639,-7.1672,-7.1251,-7.1249,-7.1247,-7.1245,0,0,-7.0307,-7.0463,-7.0503,-7.0569,-7.0693,-7.08,-7.0949,-7.1084,-7.116,-7.1261,-7.1387,-7.157,-7.1531,-7.1608,-7.162,-7.1722,-7.1914,-7.1666,-7.1669,-7.1711,-7.2161,-7.2195,-7.2232,-7.19,-7.1906,-7.1911,-7.2153,0,-7.0534,-7.08,-7.0826,-7.1063,-7.1191,-7.1174,-7.1304,-7.1394,-7.1438,-7.1553,-7.16,-7.1731,-7.1669,-7.1715,-7.1815,-7.187,-7.2005,-7.1852,-7.2019,-7.2024,-7.1994,-7.2275,-7.231,-7.2534,-7.2185,-7.219,-7.2194,0,-7.0835,-7.0948,-7.1198,-7.1306,-7.1361,-7.1478,-7.1605,-7.1715,-7.1817,-7.1842,-7.1929,-7.1928,-7.2082,-7.1987,-7.22,-7.2095,-7.2165,-7.2202,-7.2211,-7.2229,-7.2121,-7.2302,-7.2606,-7.2641,-7.2244,-7.224,-7.2236,0,-7.1003,-7.1217,-7.1395,-7.1451,-7.1581,-7.1664,-7.1721,-7.1817,-7.1898,-7.2009,-7.2062,-7.2188,-7.2258,-7.2356,-7.239,-7.2317,-7.2603,-7.2509,-7.2628,-7.2628,-7.269,-7.2686,-7.3012,-7.2732,-7.2731,-7.2731,-7.273,0,-7.1255,-7.141,-7.1472,-7.1582,-7.1755,-7.1783,-7.1953,-7.2007,-7.2093,-7.2213,-7.2204,-7.2316,-7.2353,-7.2472,-7.2499,-7.2673,-7.2704,-7.2729,-7.2735,-7.2731,-7.2728,-7.2778,-7.2764,-7.274,-7.2738,-7.2736,-7.2734,0,-7.1473,-7.1521,-7.1714,-7.1822,-7.1852,-7.1975,-7.2067,-7.2173,-7.2215,-7.2368,-7.2405,-7.2471,-7.2611,-7.2654,-7.2822,-7.284,-7.3044,-7.3035,-7.3011,-7.3012,-7.3129,-7.3119,-7.35,-7.3553,-7.3236,-7.3239,-7.3241,0,-7.1631,-7.175,-7.1871,-7.1952,-7.2014,-7.2143,-7.2226,-7.2258,-7.2344,-7.2471,-7.2562,-7.27,-7.2813,-7.3037,-7.31,-7.3229,-7.3224,-7.3349,-7.3243,-7.3237,-7.3229,-7.3222,-7.3235,-7.3369,-7.3372,-7.3375,-7.3377,0,-7.1909,-7.1928,-7.2048,-7.2178,-7.2277,-7.238,-7.248,-7.2546,-7.2592,-7.269,-7.2834,-7.2922,-7.3094,-7.3233,-7.3364,-7.3422,-7.3409,-7.341,-7.3445,-7.3443,-7.3426,-7.3439,-7.3067,-7.3401,-7.3399,-7.3397,-7.3396,-7.3395,-7.2104,-7.221,-7.2312,-7.2447,-7.2525,-7.2619,-7.2725,-7.2781,-7.2902,-7.3047,-7.3058,-7.3214,-7.3313,-7.3489,-7.3554,-7.3677,-7.3641,-7.369,-7.3703,-7.3716,-7.3727,-7.3405,-7.37,-7.3699,-7.3699,-7.3698,-7.3698,0,-7.2383,-7.2448,-7.2572,-7.2713,-7.2819,-7.2798,-7.2907,-7.2997,-7.3135,-7.323,-7.3342,-7.3508,-7.3642,-7.3717,-7.3851,-7.3935,-7.3932,-7.3969,-7.3964,-7.3978,-7.375,-7.3708,-7.3969,-7.3969,-7.3969,-7.3969,-7.3969,-7.3969,-7.2541,-7.272,-7.275,-7.2968,-7.3032,-7.3186,-7.3251,-7.3338,-7.3414,-7.36,-7.3713,-7.376,-7.3848,-7.3988,-7.4111,-7.4129,-7.418,-7.4222,-7.4236,-7.4022,-7.3994,-7.3968,-7.3928,-7.4232,-7.4232,-7.4455,-7.4457,-7.4459]}]]